CZ-6A DEB, 54894

Orbit data source: Space-Track

CZ-6A DEB, 54894 is space debris in SSO originally from a launch on Fri, 11 Nov 2022 UTC launched from the Taiyaun Space Center, China (TSC). Debris objects in space refer to the collection of defunct objects orbiting the Earth. Examples of debris include non-operational satellites, rocket bodies, and fragments generated from explosions, collisions, or faulty payload assembly.

Loading next visibility...
Identifier
54894, 2022-151QF
Orbit
SSO
Country
Flag of CNCN / PRC
Related business
Manufacturer
SAST
Mission
Spacecraft
Bus & Motor
Unknown
Mass
Unknown
Launch date (UTC)
2022-11-11 (4 years ago)
Launch vehicle
Unknown
Launch site
Taiyaun Space Center, China (TSC)
Object type
Payload
Rocket body
Debris
Shape & HBR
Unknown shape, 0.1 m
Radar Cross Section
Small (<0.1 m²)

Expand to show TLE details & history
Last TLE update: 14 hours ago

TLE from 14 hours ago
0 CZ-6A DEB
1 54894U 22151QF  26236.22020840  .00025946  00000-0  23219-2 0  9993
2 54894  98.6158 325.0645 0045442   1.3718 358.7617 14.95028924198103
Epoch: 2026-08-24T05:17Z
TLE epoch observation values (Epoch: 2026-08-24T05:17:06.005Z)
Latitude
0.00002°
Longitude
-86.71556°
Altitude
553.674 km
Speed
7.602 km/s
True Right ascension
21h 40m 15s
True Declination
0° 00' 00"
Sunlit
Object was in full shadow at epoch
Visualization orbit readout
Latitude
Unknown
Longitude
Unknown
Altitude
Unknown
Speed
Unknown
Apparent Right ascension
Unknown
Apparent Declination
Unknown
Sunlit
N/A
Visualization observer readout
Local Sidereal Time
10:50:13
Azimuth
Unknown
Elevation
Unknown
Doppler factor
Unknown
Orbital elements
Apogee altitude
610.954 km
Perigee altitude
547.721 km
Semi-major axis
6,957.474 km
Eccentricity
0.00454
Inclination
98.6158°
RAAN
325.0645°
Arg. of periapsis
1.3718°
True anomaly
358.75038°
Mean anomaly
358.7617°
Eccentric anomaly
358.75605°
Mean motion
3.73995 °/min
Orbital period
96.26 mins
BSTAR
0.0023219
Loading maneuver chart data...
Computing Atmospheric mass density...
Loading historical data...
Loading historical data...
Loading historical data...
Loading historical data...
Loading historical data...
Loading historical data...
Loading historical data...

Documentation

Showing up to 5 results
|